This is the latest recevied weather packets stored in our database for station/object EB2EMZ-W. If no packets are shown the sender has not sent any weather packets the latest 10 day(s).
| Time | Temp. | Humidity | Pressure | Rain* | Wind** | Luminosity | Snow |
|---|---|---|---|---|---|---|---|
| 1777457608 | 19.44° C | 70% | 991 hPa | 0 mm | - | - | - |
| 1777453966 | 17.78° C | 72% | 992.1 hPa | 0 mm | - | - | - |
| 1777452146 | 17.22° C | 73% | 992 hPa | 2.03 mm | - | - | - |
| 1777450326 | 17.22° C | 76% | 992 hPa | 2.03 mm | - | - | - |
| 1777448506 | 16.11° C | 77% | 992 hPa | 0 mm | - | - | - |
| 1777446686 | 16.11° C | 79% | 992 hPa | 0 mm | - | - | - |
| 1777444867 | 16.11° C | 82% | 992 hPa | 0 mm | - | - | - |
| 1777443046 | 15.56° C | 83% | 993 hPa | 0 mm | - | - | - |
| 1777441226 | 15.56° C | 83% | 992.4 hPa | 0 mm | - | - | - |
| 1777439406 | 15.56° C | 82% | 992 hPa | 0 mm | - | - | - |
| 1777437587 | 15.56° C | 82% | 992 hPa | 0 mm | - | - | - |
| 1777435767 | 15.56° C | 82% | 992 hPa | 1.02 mm | - | - | - |
| 1777433947 | 15.56° C | 83% | 992 hPa | 1.02 mm | - | - | - |
| 1777432126 | 15.56° C | 83% | 993 hPa | 3.05 mm | - | - | - |
| 1777430307 | 15.56° C | 81% | 993 hPa | 4.06 mm | - | - | - |
| 1777428486 | 15.56° C | 80% | 993 hPa | 2.03 mm | - | - | - |
| 1777426666 | 16.11° C | 79% | 994 hPa | 2.03 mm | - | - | - |
| 1777424846 | 16.11° C | 78% | 994 hPa | 3.05 mm | - | - | - |
| 1777423026 | 16.11° C | 76% | 994 hPa | 2.03 mm | - | - | - |
| 1777421206 | 16.67° C | 73% | 994 hPa | 0 mm | - | - | - |
| 1777419387 | 16.67° C | 71% | 995 hPa | 0 mm | - | - | - |
| 1777416685 | 16.67° C | 70% | 995 hPa | 0 mm | - | - | - |
| 1777414865 | 17.22° C | 68% | 995 hPa | 0 mm | - | - | - |
| 1777413043 | 17.22° C | 65% | 995 hPa | 0 mm | - | - | - |
| 1777411224 | 17.22° C | 66% | 996 hPa | 0 mm | - | - | - |
* Rain latest hour (hover to see other rain measurements)
** Current wind speed in m/s (hover to see current wind gust speed)